Location: Newark
(7.0858°N, 171.3717°E)
Time: 13:20:40
(UTC+00:00)

Vanguard 1 Rocket - Pass Details

Date: 01 December 2020
Orbit: 655 x 4222 km, 34.3° (Epoch: 23 January)

Event Time Altitude Azimuth Distance (km) Brightness Sun altitude
Exits shadow 14:43:32 28° 14° (NNE) 5,302 11.0 -53.2°
Drops below altitude 10° 14:53:10 10° 42° (NE) 5,941 11.6 -51.1°
Sets 14:57:46 0° 52° (NE) 6,491 12.0 -50.0°
